Regional Weather Roundup
Issued by NWS Grand Forks, ND

Home | Current Version | Previous Version | Graphics & Text | Print | Product List | Glossary On
Versions: 1 2 3 4 5 6 7 8 9 10 11 12 13 14 15 16 17 18 19 20 21 22 23 24 25 26 27 28 29 30 31 32 33 34 35 36 37 38 39 40 41 42 43 44 45 46 47 48 49 50
000
ASUS43 KFGF 262231
RWRFGF
PRAIRIE TO PINES  WEATHER ROUNDUP
NATIONAL WEATHER SERVICE EASTERN NORTH DAKOTA/GRAND FORKS ND
400 PM CST THU FEB 26 2015

 **SATELLITE DATA USED TO AUGMENT SKY COVER AT AUTOMATED STATIONS**
 *****  WEATHER ACROSS EASTERN NORTH DAKOTA  *****

CITY           SKY/WX    TMP DP  RH WIND       PRES   REMARKS
GRAND FORKS    SUNNY      9  -3  58 NW14      30.52F WCI  -7
GRAND FRKS AFB SUNNY      8  -6  52 N9        30.52S WCI  -5
GRAND FRKS NWS   N/A      9 N/A N/A N7          N/A  WCI  -3
DEVILS LAKE    SUNNY    N/A N/A N/A MISG        N/A
FARGO          MOSUNNY    8  -4  58 NW10      30.53F WCI  -6
WAHPETON ARPT  PTCLDY     7  -6  56 N13G22    30.53S WCI  -9
$$

 ***** WEATHER ACROSS CENTRAL AND WESTERN NORTH DAKOTA  *****

CITY           SKY/WX    TMP DP  RH WIND       PRES   REMARKS
BISMARCK       SUNNY     10  -4  53 NW13      30.53F WCI  -5
MINOT          SUNNY      5  -6  60 W15       30.53R WCI -13
JAMESTOWN      SUNNY      3  -8  60 NW17      30.50S WCI -17
MINOT AFB      SUNNY      4  -5  68 NW17      30.53R WCI -16
GARRISON         N/A      6  -3  66 NW15      30.51S WCI -12
WILLISTON      SUNNY      9  -5  53 NW9       30.54F WCI  -4
DICKINSON      SUNNY     11  -2  56 NW7       30.43F WCI   0
HETTINGER      SUNNY     10  -3  55 NW7       30.44F WCI  -1
$$

 *****  OTHER AIRPORT OBSERVATIONS IN OUR AREA  *****

CITY           SKY/WX    TMP DP  RH WIND       PRES   REMARKS
WALHALLA         N/A      9  -6  52 NW10      30.51S WCI  -6
GRAFTON AIRPOR NOT AVBL
VALLEY CITY AR FAIR       3  -4  72 NW16      30.50S WCI -16
CANDO          FAIR       3  -4  72 NW12      30.50S WCI -13
CAVALIER APRT  FAIR       9  -4  56 NW8       30.51S WCI  -4
GWINNER        CLEAR      7  -6  56 NW15      30.53S WCI -11
ROLLA          FAIR       7  -6  56 N13       30.46S WCI  -9
 ***** THE ABOVE OBSERVATIONS ARE NON NWS ARE NOT QUALITY
       CONTROLLED AND MAY MIS-REPORT RAIN FOR SNOW...
$$

  *****  WEATHER ACROSS NORTHERN MINNESOTA  *****

CITY           SKY/WX    TMP DP  RH WIND       PRES   REMARKS
FLAG ISLAND    SUNNY      9  -8  47 W10       30.38F WCI  -6
WARROAD        SUNNY      7  -8  51 W14       30.42S WCI -10
ROSEAU         SUNNY      7  -6  56 W12       30.44S WCI  -9
HALLOCK        SUNNY      7  -6  56 NW12      30.50F WCI  -9
THF RVR FALLS  SUNNY      3  -6  66 W9        30.48S WCI -11
BAUDETTE       SUNNY      5 -11  47 W8        30.39F WCI  -8
WASKISH        SUNNY      3  -9  55 SW8       30.41F WCI -10
CROOKSTON      SUNNY      7  -2  66 NW10      30.53S WCI  -8
STEPHEN NDAWN    N/A      7  -4  61 N12         N/A  WCI  -9
GREENBUSH NDAW   N/A      3  -4  72 MISG        N/A
$$
  *****  WEATHER ACROSS CENTRAL AND WEST MINNESOTA  *****

CITY           SKY/WX    TMP DP  RH WIND       PRES   REMARKS
FOSSTON        SUNNY      3  -9  55 NW9       30.47S WCI -11
BEMIDJI        SUNNY      2 -11  54 NW10      30.42S WCI -14
PARK RAPIDS    SUNNY      5  -9  52 W15       30.40S WCI -13
ELBOW LAKE     MOCLDY     4  -5  67 NW13      30.48R WCI -13
WADENA         SUNNY      3  -9  55 NW12      30.43R WCI -13
DETROIT LAKES  MOSUNNY    3  -4  72 N10       30.47R WCI -12
MOORHEAD       SUNNY      7  -2  66 NW12      30.53S WCI  -9
FERGUS FALLS   SUNNY      3  -8  60 N17       30.53S WCI -17
MORRIS MN      MOSUNNY    3  -6  66 NW17      30.48S WCI -17
STAPLES        SUNNY      5  -9  51 NW9       30.41S WCI  -9
$$
  *****  WEATHER ELSEWHERE ACROSS MINNESOTA  *****

CITY           SKY/WX    TMP DP  RH WIND       PRES   REMARKS
DULUTH         SUNNY      8 -11  41 NW12      30.31S WCI  -7
INTRNTL FALLS  SUNNY      3 -14  45 W9        30.38S WCI -12
ELY            SUNNY      7 -15  36 W10       30.30S WCI  -8
CLOQUET        SUNNY      7 -13  40 W9        30.34S WCI  -7
WHEATON        SUNNY      1  -8  66 NW14      30.55S WCI -17
BRAINERD       SUNNY      6 -11  45 NW12      30.41S WCI  -9
HIBBING        SUNNY      6 -10  47 NW13      30.34F WCI -10
ALEXANDRIA     SUNNY      3  -9  57 NW15      30.43S WCI -16
SAINT CLOUD    SUNNY      7  -8  50 NW10      30.43S WCI  -8
MINNEAPOLIS    MOSUNNY   10  -7  46 NW10      30.43S WCI  -4
$$

  *****  WEATHER ACROSS SOUTH DAKOTA  *****

CITY           SKY/WX    TMP DP  RH WIND       PRES   REMARKS
SIOUX FALLS    PTSUNNY    5  -4  66 N15       30.49R WCI -13
BROOKINGS      NOT AVBL
WATERTOWN      CLOUDY     2  -7  66 NW15G21   30.46R WCI -17
HURON          MOSUNNY    5  -6  60 N14       30.54F WCI -12
SISSETON         N/A      4  -6  63 N18       30.52S WCI -16
ABERDEEN       SUNNY      6  -6  57 N12       30.55S WCI  -9
MITCHELL       SUNNY      8  -4  58 N15       30.55S WCI  -9
PIERRE         MOSUNNY   12  -3  51 N12       30.51S WCI  -2
MOBRIDGE       SUNNY     10  -6  48 N12       30.49F WCI  -5
RAPID CITY     SUNNY      9  -2  61 N14       30.39S WCI  -7
$$

  *****  SOME WEATHER IN NEARBY STATES *****

CITY           SKY/WX    TMP DP  RH WIND       PRES   REMARKS
GLASGOW MT     SUNNY     11  -8  42 SE9       30.47F WCI  -2
GREAT FALLS MT MOSUNNY   15   8  73 E9        30.22F WCI   3
CHEYENNE WY    LGT SNOW  11   4  73 E9        30.07F VSB 3/4 WCI  -2
SCOTTSBLUFF NE CLOUDY    17   2  51 E6        30.27F WCI   9
OMAHA NE       PTSUNNY   11   2  67 N15       30.53R WCI  -5
DES MOINES IA  MOSUNNY   10  -3  55 NW16G23   30.47S WCI  -7
DAVENPORT IA   SUNNY     11  -2  56 NW10      30.36R WCI  -3
CHICAGO IL     MOSUNNY   14  -1  51 NW14      30.28R WCI  -1
EAU CLAIRE WI  SUNNY      9  -8  46 N10       30.38S WCI  -5
LA CROSSE WI   PTSUNNY   12  -4  48 NW12      30.40R WCI  -2
$$

  *****  SOME NATIONAL WEATHER *****

CITY           SKY/WX    TMP DP  RH WIND       PRES   REMARKS
LA GUARDIA NY  CLOUDY    26  14  60 N10       30.00R WCI  16
RALEIGH NC     CLOUDY    35  28  75 CALM      29.99R
ATLANTA GA     CLOUDY    38  31  76 NW9       30.01R
NEW ORLEANS LA PTSUNNY   47  36  65 N13       30.10S
OKLAHOMA CITY  PTSUNNY   31   2  29 N18G26    30.36S WCI  19
ALBUQUERQUE NM CLOUDY    39  22  50 E25       29.96F
SALT LAKE CITY CLOUDY    38  33  82 NW6       29.91F
LOS ANGELES CA MOSUNNY   63  54  72 W12       29.87F
BOISE ID       PTSUNNY   49  31  49 NW15      29.98F
SEATTLE WA     CLOUDY    52  45  76 W5        30.06F
$$

*** WEATHER ACROSS MANITOBA...SASKATCHEWAN AND ONTARIO ***
                ***ONTARIO***

CITY           SKY/WX    TMP DP  RH WIND       PRES   REMARKS
GERALDTON      SUNNY      1 -11  55 W9G17     30.14S WCI -14
THUNDER BAY    SUNNY     10  -9  40 W14       30.28F WCI  -5
SIOUX LOOKOUT  MOSUNNY    5  -9  51 W9        30.27R WCI  -9
TORONTO        CLOUDY    12  -8  40 N14       30.15R WCI  -3
BIG TROUT LK   SUNNY      7  -6  56 W16G22    30.10S WCI -11
PICKLE LAKE    MOSUNNY    7 -11  43 W15G24    30.15S WCI -11
DRYDEN         PTSUNNY    5  -8  56 W17       30.28S WCI -14
KENORA         MOSUNNY    7  -9  47 W9        30.34S WCI  -7
$$
                *** MANITOBA***

CITY           SKY/WX    TMP DP  RH WIND       PRES   REMARKS
BRANDON        SUNNY      5  -8  56 NW17      30.49F WCI -14
DAUPHIN        SUNNY      9  -4  56 W15G21    30.48F WCI  -8
ISLAND LAKE    MOSUNNY    9  -8  47 W12       30.26  WCI  -6
PILOT MOUND      N/A      1  -8  66 W12         N/A  WCI -15
THE PAS        PTSUNNY   14  -8  37 W14       30.43F WCI  -1
THOMPSON       MOSUNNY   14 -11  31 NW14G25   30.28F WCI  -1
WINNIPEG       SUNNY      5  -6  61 W13       30.50S WCI -12
LYNN LAKE      SUNNY     16  -8  35 W13G18    30.24F WCI   2
CHURCHILL      MOSUNNY    7  -6  56 NW10      30.03  WCI  -8
GILLAM         PTSUNNY   10  -8  44 W12G21    30.17F WCI  -4
$$
                ***SASKATCHEWAN***

CITY           SKY/WX    TMP DP  RH WIND       PRES   REMARKS
ESTEVAN        SUNNY      0  -9  65 NW10      30.54F WCI -17
KINDERSLEY     MOSUNNY    7  -2  66 SE12      30.39  WCI  -9
LLOYDMINSTER   MOSUNNY    5  -6  61 S14       30.35F WCI -12
PRINCE ALBERT  MOSUNNY    5  -8  56 S9        30.49F WCI  -9
REGINA         SUNNY      0  -8  71 W5        30.53F WCI -10
YORKTON        SUNNY      5  -6  61 NW13G20   30.49F WCI -12
N. BATTLEFORD  SUNNY      1  -8  66 SE6       30.47F WCI -10
LA RONGE       SUNNY     16  -8  35 SW10      30.41F WCI   3
SASKATOON      SUNNY      1  -8  66 SW8       30.52F WCI -12
SWIFT CURRENT  SUNNY      9   0  66 S13       30.38F WCI  -7
$$
NOTE: THESE ARE AUTOMATED STATIONS WITH LIMITED QUALITY CONTROL
      "FAIR" INDICATES FEW OR NO CLOUDS BELOW 12,000 FEET WITH NO
      SIGNIFICANT WEATHER AND/OR OBSTRUCTIONS TO VISIBILITY.
      SKY/WX - SKY CONDITION AND SIGNIFICANT WEATHER.
      TMP - AIR TEMPERATURE.    DP   - DEWPOINT TEMPERATURE.
      RH  - RELATIVE HUMIDITY.  PRES - PRESSURE.
      HX  - HEAT INDEX.         WCI  - WIND CHILL INDEX.
$



USA.gov is the U.S. government's official web portal to all federal, state and local government web resources and services.